INTELSAT 17 (IS-17)

Last updated on Sun Apr 12 2026 00:02:52 GMT+0000 (Coordinated Universal Time)

1 37238U 10065B 26101.46244175 .00000000 00000+0 00000+0 0 9996 2 37238 0.0185 209.4700 0002624 184.3577 38.3176 1.00271246 52570
UTC large
Height (km)
Speed (km/s)
/
Latitude / Longitude
Inclination (degrees)
Orbital Period (minutes)
Azimuth
Elevation
Range (km)
Doppler Factor

Next 0 passes for location: London (51.5072 / 0.1276)

Sorry there are no passes over London.
INTELSAT 17 (IS-17)